Location: Falconara Alta
(43.6167°N, 13.4000°E)
Time: 14:03:50
(UTC+00:00)

Cosmos 1741 Rocket - Pass Details

Date: 09 April 2020
Orbit: 762 x 782 km, 74.0° (Epoch: 27 May)

Event Time Altitude Azimuth Distance (km) Brightness Sun altitude
Exits shadow 19:40:58 37° 155° (SSE) 1,192 4.5 -20.4°
Maximum altitude 19:42:37 51° 105° (ESE) 975 4.1 -20.6°
Drops below altitude 10° 19:47:46 10° 30° (NNE) 2,345 6.6 -21.4°
Sets 19:50:13 0° 26° (NNE) 3,277 7.4 -21.8°
